Location: Central Falls
(41.8900°N, 71.3929°W)
Time: 02:56:28
(UTC+00:00)

Vanguard 2 - Pass Details

Date: 05 December 2023
Orbit: 554 x 2918 km, 32.9° (Epoch: 01 March)

Event Time Altitude Azimuth Distance (km) Brightness Sun altitude
Rises 08:10:04 0° 274° (W) 5,357 - -41.6°
Reaches altitude 10° 08:15:49 10° 256° (WSW) 3,806 - -40.5°
Maximum altitude 08:20:48 16° 224° (SW) 2,880 - -39.6°
Drops below altitude 10° 08:24:46 10° 190° (S) 2,873 - -38.8°
Exits shadow 08:28:07 - 167° (SSE) 3,458 11.0 -38.2°
Sets 08:28:11 0° 167° (SSE) 3,470 11.0 -38.2°
